Time,TemperatureF,DewpointF,PressureIn,WindDirection,WindDirectionDegrees,WindSpeedMPH,WindSpeedGustMPH,Humidity,HourlyPrecipIn,Conditions,Clouds,dailyrainin,SoftwareType,DateUTC
2013-01-26 00:00:00,15.3,11.1,30.03,WSW,240,0.0,0.0,83,0.00,,,0.00,WeatherCatV1.10B1784,2013-01-26 05:00:00,
2013-01-26 00:05:00,15.2,11.0,30.03,WSW,240,0.0,0.0,83,0.00,,,0.00,WeatherCatV1.10B1784,2013-01-26 05:05:00,
2013-01-26 00:10:00,15.1,10.9,30.03,WSW,240,0.0,0.0,83,0.00,,,0.00,WeatherCatV1.10B1784,2013-01-26 05:10:00,
2013-01-26 00:15:00,15.0,13.1,30.03,WSW,240,0.0,0.0,92,0.00,,,0.00,WeatherCatV1.10B1784,2013-01-26 05:15:00,
2013-01-26 00:20:00,15.0,11.1,30.03,WSW,240,0.0,0.0,84,0.00,,,0.00,WeatherCatV1.10B1784,2013-01-26 05:20:00,
2013-01-26 00:25:00,15.0,11.1,30.03,WSW,240,0.0,0.0,84,0.00,,,0.00,WeatherCatV1.10B1784,2013-01-26 05:25:00,
2013-01-26 00:30:00,15.1,11.4,30.03,WSW,240,0.0,0.0,85,0.00,,,0.00,WeatherCatV1.10B1784,2013-01-26 05:30:00,
2013-01-26 00:35:00,15.1,11.4,30.03,WSW,240,0.0,0.0,85,0.00,,,0.00,WeatherCatV1.10B1784,2013-01-26 05:35:00,
2013-01-26 00:40:00,15.1,11.4,30.03,WSW,240,0.0,0.0,85,0.00,,,0.00,WeatherCatV1.10B1784,2013-01-26 05:40:00,
2013-01-26 00:45:00,15.0,11.6,30.03,WSW,240,0.0,0.0,86,0.00,,,0.00,WeatherCatV1.10B1784,2013-01-26 05:45:00,
2013-01-26 00:50:00,15.0,11.6,30.03,WSW,240,0.0,0.0,86,0.00,,,0.00,WeatherCatV1.10B1784,2013-01-26 05:50:00,
2013-01-26 00:55:00,15.0,11.6,30.03,WSW,240,0.0,0.0,86,0.00,,,0.00,WeatherCatV1.10B1784,2013-01-26 05:55:00,
2013-01-26 01:00:00,14.9,11.2,30.03,WSW,240,0.0,0.0,85,0.00,,,0.00,WeatherCatV1.10B1784,2013-01-26 06:00:00,
2013-01-26 01:05:00,14.8,11.1,30.02,WSW,240,0.0,0.0,85,0.00,,,0.00,WeatherCatV1.10B1784,2013-01-26 06:05:00,
2013-01-26 01:10:00,14.6,10.7,30.02,WSW,240,0.0,0.0,84,0.00,,,0.00,WeatherCatV1.10B1784,2013-01-26 06:10:00,
2013-01-26 01:15:00,14.5,10.6,30.02,WSW,240,0.0,0.0,84,0.00,,,0.00,WeatherCatV1.10B1784,2013-01-26 06:15:00,
2013-01-26 01:20:00,14.3,10.4,30.02,WSW,240,0.0,0.0,84,0.00,,,0.00,WeatherCatV1.10B1784,2013-01-26 06:20:00,
2013-01-26 01:25:00,14.1,10.2,30.02,WSW,240,0.0,0.0,84,0.00,,,0.00,WeatherCatV1.10B1784,2013-01-26 06:25:00,
2013-01-26 01:30:00,13.9,10.0,30.02,WSW,240,0.0,0.0,84,0.00,,,0.00,WeatherCatV1.10B1784,2013-01-26 06:30:00,
2013-01-26 01:35:00,13.7,9.8,30.02,WSW,240,0.0,0.0,84,0.00,,,0.00,WeatherCatV1.10B1784,2013-01-26 06:35:00,
2013-01-26 01:40:00,13.6,9.7,30.02,WSW,240,0.0,0.0,84,0.00,,,0.00,WeatherCatV1.10B1784,2013-01-26 06:40:00,
2013-01-26 01:45:00,13.3,9.4,30.02,WSW,240,0.0,0.0,84,0.00,,,0.00,WeatherCatV1.10B1784,2013-01-26 06:45:00,
2013-01-26 01:50:00,13.1,9.2,30.02,WSW,240,0.0,0.0,84,0.00,,,0.00,WeatherCatV1.10B1784,2013-01-26 06:50:00,
2013-01-26 01:55:00,13.0,9.4,30.01,WSW,240,0.0,0.0,85,0.00,,,0.00,WeatherCatV1.10B1784,2013-01-26 06:55:00,
2013-01-26 02:00:00,12.8,9.2,30.01,WSW,240,0.0,0.0,85,0.00,,,0.00,WeatherCatV1.10B1784,2013-01-26 07:00:00,
2013-01-26 02:05:00,12.7,9.1,30.00,WSW,240,0.0,0.0,85,0.00,,,0.00,WeatherCatV1.10B1784,2013-01-26 07:05:00,
2013-01-26 02:10:00,12.4,8.8,30.01,WSW,240,0.0,0.0,85,0.00,,,0.00,WeatherCatV1.10B1784,2013-01-26 07:10:00,
2013-01-26 02:15:00,12.1,8.5,30.01,WSW,240,0.0,0.0,85,0.00,,,0.00,WeatherCatV1.10B1784,2013-01-26 07:15:00,
2013-01-26 02:20:00,11.9,8.3,30.00,WSW,240,0.0,0.0,85,0.00,,,0.00,WeatherCatV1.10B1784,2013-01-26 07:20:00,
2013-01-26 02:25:00,11.9,8.5,30.00,WSW,240,0.0,0.0,86,0.00,,,0.00,WeatherCatV1.10B1784,2013-01-26 07:25:00,
2013-01-26 02:30:00,11.9,8.5,30.00,WSW,240,0.0,0.0,86,0.00,,,0.00,WeatherCatV1.10B1784,2013-01-26 07:30:00,
2013-01-26 02:35:00,11.9,8.3,30.00,WSW,240,0.0,0.0,85,0.00,,,0.00,WeatherCatV1.10B1784,2013-01-26 07:35:00,
2013-01-26 02:40:00,12.0,8.4,30.00,WSW,240,0.0,0.0,85,0.00,,,0.00,WeatherCatV1.10B1784,2013-01-26 07:40:00,
2013-01-26 02:45:00,11.9,8.3,30.00,WSW,240,0.0,0.0,85,0.00,,,0.00,WeatherCatV1.10B1784,2013-01-26 07:45:00,
2013-01-26 02:50:00,11.9,8.3,30.00,WSW,240,0.0,0.0,85,0.00,,,0.00,WeatherCatV1.10B1784,2013-01-26 07:50:00,
2013-01-26 02:55:00,11.9,8.0,29.99,WSW,240,0.0,1.0,84,0.00,,,0.00,WeatherCatV1.10B1784,2013-01-26 07:55:00,
2013-01-26 03:00:00,11.9,8.0,29.99,WSW,240,2.0,2.0,84,0.00,,,0.00,WeatherCatV1.10B1784,2013-01-26 08:00:00,
2013-01-26 03:05:00,11.8,7.9,29.99,WSW,240,0.0,3.0,84,0.00,,,0.00,WeatherCatV1.10B1784,2013-01-26 08:05:00,
2013-01-26 03:10:00,11.8,7.9,30.00,WSW,240,0.0,0.0,84,0.00,,,0.00,WeatherCatV1.10B1784,2013-01-26 08:10:00,
2013-01-26 03:15:00,11.7,7.8,29.99,WSW,240,0.0,0.0,84,0.00,,,0.00,WeatherCatV1.10B1784,2013-01-26 08:15:00,
2013-01-26 03:20:00,11.6,7.7,29.99,WSW,240,0.0,0.0,84,0.00,,,0.00,WeatherCatV1.10B1784,2013-01-26 08:20:00,
2013-01-26 03:25:00,11.5,7.6,29.99,WSW,240,0.0,0.0,84,0.00,,,0.00,WeatherCatV1.10B1784,2013-01-26 08:25:00,
2013-01-26 03:30:00,11.4,7.5,29.99,WSW,240,0.0,0.0,84,0.00,,,0.00,WeatherCatV1.10B1784,2013-01-26 08:30:00,
2013-01-26 03:35:00,11.3,7.4,29.99,WSW,240,0.0,0.0,84,0.00,,,0.00,WeatherCatV1.10B1784,2013-01-26 08:35:00,
2013-01-26 03:40:00,11.3,7.4,29.99,WSW,240,0.0,0.0,84,0.00,,,0.00,WeatherCatV1.10B1784,2013-01-26 08:40:00,
2013-01-26 03:45:00,11.2,7.3,29.99,WSW,240,0.0,0.0,84,0.00,,,0.00,WeatherCatV1.10B1784,2013-01-26 08:45:00,
2013-01-26 03:50:00,11.2,7.3,29.99,WSW,240,0.0,0.0,84,0.00,,,0.00,WeatherCatV1.10B1784,2013-01-26 08:50:00,
2013-01-26 03:55:00,11.1,7.0,29.99,WSW,240,0.0,0.0,83,0.00,,,0.00,WeatherCatV1.10B1784,2013-01-26 08:55:00,
2013-01-26 04:00:00,10.9,6.8,29.99,WSW,240,0.0,1.0,83,0.00,,,0.00,WeatherCatV1.10B1784,2013-01-26 09:00:00,
2013-01-26 04:05:00,11.0,6.9,29.98,WSW,240,2.0,3.0,83,0.00,,,0.00,WeatherCatV1.10B1784,2013-01-26 09:05:00,
2013-01-26 04:10:00,11.1,7.0,29.98,WNW,282,1.0,3.0,83,0.00,,,0.00,WeatherCatV1.10B1784,2013-01-26 09:10:00,
2013-01-26 04:15:00,11.1,6.7,29.98,WNW,282,0.0,0.0,82,0.00,,,0.00,WeatherCatV1.10B1784,2013-01-26 09:15:00,
2013-01-26 04:20:00,11.1,6.7,29.99,WNW,282,0.0,0.0,82,0.00,,,0.00,WeatherCatV1.10B1784,2013-01-26 09:20:00,
2013-01-26 04:25:00,11.1,6.7,29.99,WNW,283,0.0,2.0,82,0.00,,,0.00,WeatherCatV1.10B1784,2013-01-26 09:25:00,
2013-01-26 04:30:00,11.1,6.7,29.98,NW,309,3.0,4.0,82,0.00,,,0.00,WeatherCatV1.10B1784,2013-01-26 09:30:00,
2013-01-26 04:35:00,11.1,6.4,29.98,NW,309,2.0,3.0,81,0.00,,,0.00,WeatherCatV1.10B1784,2013-01-26 09:35:00,
2013-01-26 04:40:00,11.0,6.3,29.98,NW,309,0.0,3.0,81,0.00,,,0.00,WeatherCatV1.10B1784,2013-01-26 09:40:00,
2013-01-26 04:45:00,10.9,6.2,29.99,NW,309,1.0,3.0,81,0.00,,,0.00,WeatherCatV1.10B1784,2013-01-26 09:45:00,
2013-01-26 04:50:00,10.9,6.0,29.99,NW,309,2.0,3.0,80,0.00,,,0.00,WeatherCatV1.10B1784,2013-01-26 09:50:00,
2013-01-26 04:55:00,10.7,6.0,29.99,NW,309,1.0,2.0,81,0.00,,,0.00,WeatherCatV1.10B1784,2013-01-26 09:55:00,
2013-01-26 05:00:00,10.5,5.8,29.99,NW,309,3.0,5.0,81,0.00,,,0.00,WeatherCatV1.10B1784,2013-01-26 10:00:00,
2013-01-26 05:05:00,10.4,5.7,29.99,NW,309,0.0,2.0,81,0.00,,,0.00,WeatherCatV1.10B1784,2013-01-26 10:05:00,
2013-01-26 05:10:00,10.3,5.7,29.99,NW,309,0.0,0.0,81,0.00,,,0.00,WeatherCatV1.10B1784,2013-01-26 10:10:00,
2013-01-26 05:15:00,10.2,5.6,29.99,NW,311,2.0,3.0,81,0.00,,,0.00,WeatherCatV1.10B1784,2013-01-26 10:15:00,
2013-01-26 05:20:00,10.0,5.4,29.99,NW,311,0.0,0.0,81,0.00,,,0.00,WeatherCatV1.10B1784,2013-01-26 10:20:00,
2013-01-26 05:25:00,9.9,5.3,29.99,NW,311,0.0,2.0,81,0.00,,,0.00,WeatherCatV1.10B1784,2013-01-26 10:25:00,
2013-01-26 05:30:00,9.8,5.2,29.99,NW,311,0.0,0.0,81,0.00,,,0.00,WeatherCatV1.10B1784,2013-01-26 10:30:00,
2013-01-26 05:35:00,9.8,5.2,30.00,NW,311,0.0,0.0,81,0.00,,,0.00,WeatherCatV1.10B1784,2013-01-26 10:35:00,
2013-01-26 05:40:00,9.8,5.2,30.00,NW,311,1.0,2.0,81,0.00,,,0.00,WeatherCatV1.10B1784,2013-01-26 10:40:00,
2013-01-26 05:45:00,10.0,4.8,30.00,NW,311,0.0,3.0,79,0.00,,,0.00,WeatherCatV1.10B1784,2013-01-26 10:45:00,
2013-01-26 05:50:00,10.1,4.9,30.00,NW,311,2.0,3.0,79,0.00,,,0.00,WeatherCatV1.10B1784,2013-01-26 10:50:00,
2013-01-26 05:55:00,10.0,4.8,30.00,NW,311,0.0,2.0,79,0.00,,,0.00,WeatherCatV1.10B1784,2013-01-26 10:55:00,
2013-01-26 06:00:00,9.9,4.7,30.01,NW,311,2.0,3.0,79,0.00,,,0.00,WeatherCatV1.10B1784,2013-01-26 11:00:00,
2013-01-26 06:05:00,9.8,4.6,30.01,NW,311,0.0,2.0,79,0.00,,,0.00,WeatherCatV1.10B1784,2013-01-26 11:05:00,
2013-01-26 06:10:00,9.8,4.6,30.01,NW,311,1.0,1.0,79,0.00,,,0.00,WeatherCatV1.10B1784,2013-01-26 11:10:00,
2013-01-26 06:15:00,9.6,4.4,30.01,NW,311,0.0,5.0,79,0.00,,,0.00,WeatherCatV1.10B1784,2013-01-26 11:15:00,
2013-01-26 06:20:00,9.5,4.3,30.01,NW,311,0.0,2.0,79,0.00,,,0.00,WeatherCatV1.10B1784,2013-01-26 11:20:00,
2013-01-26 06:25:00,9.5,4.3,30.01,NW,320,1.0,5.0,79,0.00,,,0.00,WeatherCatV1.10B1784,2013-01-26 11:25:00,
2013-01-26 06:30:00,9.5,4.1,30.01,NW,320,2.0,3.0,78,0.00,,,0.00,WeatherCatV1.10B1784,2013-01-26 11:30:00,
2013-01-26 06:35:00,9.5,4.3,30.01,NW,319,1.0,4.0,79,0.00,,,0.00,WeatherCatV1.10B1784,2013-01-26 11:35:00,
2013-01-26 06:40:00,9.4,4.0,30.01,NW,319,3.0,3.0,78,0.00,,,0.00,WeatherCatV1.10B1784,2013-01-26 11:40:00,
2013-01-26 06:45:00,9.4,4.0,30.02,NW,319,2.0,4.0,78,0.00,,,0.00,WeatherCatV1.10B1784,2013-01-26 11:45:00,
2013-01-26 06:50:00,9.4,4.0,30.02,NW,319,1.0,3.0,78,0.00,,,0.00,WeatherCatV1.10B1784,2013-01-26 11:50:00,
2013-01-26 06:55:00,9.3,3.9,30.02,NW,321,0.0,5.0,78,0.00,,,0.00,WeatherCatV1.10B1784,2013-01-26 11:55:00,
2013-01-26 07:00:00,9.3,3.9,30.02,NW,321,0.0,3.0,78,0.00,,,0.00,WeatherCatV1.10B1784,2013-01-26 12:00:00,
2013-01-26 07:05:00,9.2,3.8,30.02,NW,321,0.0,3.0,78,0.00,,,0.00,WeatherCatV1.10B1784,2013-01-26 12:05:00,
2013-01-26 07:10:00,9.2,3.8,30.03,NW,321,0.0,0.0,78,0.00,,,0.00,WeatherCatV1.10B1784,2013-01-26 12:10:00,
2013-01-26 07:15:00,9.2,3.8,30.03,NW,321,2.0,3.0,78,0.00,,,0.00,WeatherCatV1.10B1784,2013-01-26 12:15:00,
2013-01-26 07:20:00,9.2,3.8,30.03,NW,321,1.0,3.0,78,0.00,,,0.00,WeatherCatV1.10B1784,2013-01-26 12:20:00,
2013-01-26 07:25:00,9.2,3.8,30.03,NW,321,1.0,2.0,78,0.00,,,0.00,WeatherCatV1.10B1784,2013-01-26 12:25:00,
2013-01-26 07:30:00,9.2,3.8,30.03,NW,321,2.0,3.0,78,0.00,,,0.00,WeatherCatV1.10B1784,2013-01-26 12:30:00,
2013-01-26 07:35:00,9.3,3.6,30.03,NW,321,0.0,4.0,77,0.00,,,0.00,WeatherCatV1.10B1784,2013-01-26 12:35:00,
2013-01-26 07:40:00,9.4,3.7,30.03,NW,321,0.0,3.0,77,0.00,,,0.00,WeatherCatV1.10B1784,2013-01-26 12:40:00,
2013-01-26 07:45:00,9.5,3.8,30.03,NW,321,0.0,4.0,77,0.00,,,0.00,WeatherCatV1.10B1784,2013-01-26 12:45:00,
2013-01-26 07:50:00,9.6,3.9,30.03,NW,321,1.0,3.0,77,0.00,,,0.00,WeatherCatV1.10B1784,2013-01-26 12:50:00,
2013-01-26 07:55:00,9.7,3.7,30.04,NW,321,0.0,0.0,76,0.00,,,0.00,WeatherCatV1.10B1784,2013-01-26 12:55:00,
2013-01-26 08:00:00,9.8,3.8,30.04,NW,321,0.0,0.0,76,0.00,,,0.00,WeatherCatV1.10B1784,2013-01-26 13:00:00,
2013-01-26 08:05:00,10.0,4.0,30.04,NW,321,0.0,2.0,76,0.00,,,0.00,WeatherCatV1.10B1784,2013-01-26 13:05:00,
2013-01-26 08:10:00,10.1,3.8,30.04,NW,321,1.0,1.0,75,0.00,,,0.00,WeatherCatV1.10B1784,2013-01-26 13:10:00,
2013-01-26 08:15:00,10.5,4.2,30.04,NW,321,1.0,2.0,75,0.00,,,0.00,WeatherCatV1.10B1784,2013-01-26 13:15:00,
2013-01-26 08:20:00,10.7,4.1,30.04,NW,321,1.0,2.0,74,0.00,,,0.00,WeatherCatV1.10B1784,2013-01-26 13:20:00,
2013-01-26 08:25:00,10.9,4.3,30.04,NW,321,0.0,3.0,74,0.00,,,0.00,WeatherCatV1.10B1784,2013-01-26 13:25:00,
2013-01-26 08:30:00,11.1,4.2,30.04,NW,321,2.0,4.0,73,0.00,,,0.00,WeatherCatV1.10B1784,2013-01-26 13:30:00,
2013-01-26 08:35:00,11.3,4.4,30.05,NNE,28,1.0,3.0,73,0.00,,,0.00,WeatherCatV1.10B1784,2013-01-26 13:35:00,
2013-01-26 08:40:00,11.4,4.2,30.05,NNE,28,3.0,4.0,72,0.00,,,0.00,WeatherCatV1.10B1784,2013-01-26 13:40:00,
2013-01-26 08:45:00,11.6,4.0,30.05,NNE,28,1.0,2.0,71,0.00,,,0.00,WeatherCatV1.10B1784,2013-01-26 13:45:00,
2013-01-26 08:50:00,12.0,4.4,30.05,NNE,27,2.0,3.0,71,0.00,,,0.00,WeatherCatV1.10B1784,2013-01-26 13:50:00,
2013-01-26 08:55:00,12.4,4.5,30.06,NNE,15,2.0,5.0,70,0.00,,,0.00,WeatherCatV1.10B1784,2013-01-26 13:55:00,
2013-01-26 09:00:00,12.6,4.4,30.06,NNE,15,4.0,4.0,69,0.00,,,0.00,WeatherCatV1.10B1784,2013-01-26 14:00:00,
2013-01-26 09:05:00,12.8,4.3,30.06,NNW,328,5.0,6.0,68,0.00,,,0.00,WeatherCatV1.10B1784,2013-01-26 14:05:00,
2013-01-26 09:10:00,12.8,3.9,30.06,NW,323,5.0,9.0,67,0.00,,,0.00,WeatherCatV1.10B1784,2013-01-26 14:10:00,
2013-01-26 09:15:00,13.0,4.1,30.06,North,9,5.0,5.0,67,0.00,,,0.00,WeatherCatV1.10B1784,2013-01-26 14:15:00,
2013-01-26 09:20:00,13.3,4.4,30.06,North,353,2.0,8.0,67,0.00,,,0.00,WeatherCatV1.10B1784,2013-01-26 14:20:00,
2013-01-26 09:25:00,13.6,4.7,30.06,North,353,6.0,6.0,67,0.00,,,0.00,WeatherCatV1.10B1784,2013-01-26 14:25:00,
2013-01-26 09:30:00,13.8,4.6,30.06,North,352,5.0,7.0,66,0.00,,,0.00,WeatherCatV1.10B1784,2013-01-26 14:30:00,
2013-01-26 09:35:00,13.8,4.2,30.05,North,352,3.0,6.0,65,0.00,,,0.00,WeatherCatV1.10B1784,2013-01-26 14:35:00,
2013-01-26 09:41:00,14.0,4.4,30.05,North,2,5.0,6.0,65,0.00,,,0.00,WeatherCatV1.10B1784,2013-01-26 14:41:00,
2013-01-26 09:46:00,14.2,4.3,30.05,North,1,6.0,6.0,64,0.00,,,0.00,WeatherCatV1.10B1784,2013-01-26 14:46:00,
2013-01-26 09:51:00,14.6,4.7,30.05,North,358,6.0,6.0,64,0.00,,,0.00,WeatherCatV1.10B1784,2013-01-26 14:51:00,
2013-01-26 09:56:00,14.8,4.9,30.05,North,358,5.0,5.0,64,0.00,,,0.00,WeatherCatV1.10B1784,2013-01-26 14:56:00,
2013-01-26 10:01:00,15.0,4.7,30.05,North,358,2.0,5.0,63,0.00,,,0.00,WeatherCatV1.10B1784,2013-01-26 15:01:00,
2013-01-26 10:06:00,15.3,4.6,30.05,North,358,5.0,6.0,62,0.00,,,0.00,WeatherCatV1.10B1784,2013-01-26 15:06:00,
2013-01-26 10:11:00,15.6,4.6,30.05,North,358,2.0,6.0,61,0.00,,,0.00,WeatherCatV1.10B1784,2013-01-26 15:11:00,
2013-01-26 10:16:00,16.2,5.5,30.05,North,358,1.0,7.0,62,0.00,,,0.00,WeatherCatV1.10B1784,2013-01-26 15:16:00,
2013-01-26 10:21:00,16.3,5.6,30.05,North,358,6.0,7.0,62,0.00,,,0.00,WeatherCatV1.10B1784,2013-01-26 15:21:00,
2013-01-26 10:26:00,16.5,5.4,30.05,NNW,348,6.0,6.0,61,0.00,,,0.00,WeatherCatV1.10B1784,2013-01-26 15:26:00,
2013-01-26 10:31:00,16.6,5.2,30.05,NNW,348,0.0,5.0,60,0.00,,,0.00,WeatherCatV1.10B1784,2013-01-26 15:31:00,
2013-01-26 10:36:00,16.9,5.1,30.05,NNW,348,2.0,6.0,59,0.00,,,0.00,WeatherCatV1.10B1784,2013-01-26 15:36:00,
2013-01-26 10:41:00,17.0,4.8,30.05,NNW,348,3.0,5.0,58,0.00,,,0.00,WeatherCatV1.10B1784,2013-01-26 15:41:00,
2013-01-26 10:46:00,17.3,5.5,30.05,NNW,348,5.0,5.0,59,0.00,,,0.00,WeatherCatV1.10B1784,2013-01-26 15:46:00,
2013-01-26 10:51:00,17.5,4.9,30.05,NW,304,2.0,2.0,57,0.00,,,0.00,WeatherCatV1.10B1784,2013-01-26 15:51:00,
2013-01-26 10:56:00,17.5,3.7,30.05,NW,317,3.0,4.0,54,0.00,,,0.00,WeatherCatV1.10B1784,2013-01-26 15:56:00,
2013-01-26 11:01:00,17.6,3.8,30.05,SW,235,4.0,6.0,54,0.00,,,0.00,WeatherCatV1.10B1784,2013-01-26 16:01:00,
2013-01-26 11:06:00,17.8,4.4,30.05,NW,313,3.0,5.0,55,0.00,,,0.00,WeatherCatV1.10B1784,2013-01-26 16:06:00,
2013-01-26 11:11:00,17.8,3.6,30.04,NNE,19,3.0,7.0,53,0.00,,,0.00,WeatherCatV1.10B1784,2013-01-26 16:11:00,
2013-01-26 11:16:00,18.0,3.8,30.04,NNE,18,0.0,7.0,53,0.00,,,0.00,WeatherCatV1.10B1784,2013-01-26 16:16:00,
2013-01-26 11:21:00,18.4,3.8,30.04,NNE,17,2.0,4.0,52,0.00,,,0.00,WeatherCatV1.10B1784,2013-01-26 16:21:00,
2013-01-26 11:26:00,18.6,3.5,30.03,NW,304,2.0,2.0,51,0.00,,,0.00,WeatherCatV1.10B1784,2013-01-26 16:26:00,
2013-01-26 11:31:00,19.1,4.0,30.03,WNW,300,1.0,3.0,51,0.00,,,0.00,WeatherCatV1.10B1784,2013-01-26 16:31:00,
2013-01-26 11:36:00,19.3,2.9,30.03,NW,320,3.0,7.0,48,0.00,,,0.00,WeatherCatV1.10B1784,2013-01-26 16:36:00,
2013-01-26 11:41:00,19.2,2.8,30.03,NW,321,5.0,5.0,48,0.00,,,0.00,WeatherCatV1.10B1784,2013-01-26 16:41:00,
2013-01-26 11:46:00,19.2,2.8,30.03,NW,326,1.0,8.0,48,0.00,,,0.00,WeatherCatV1.10B1784,2013-01-26 16:46:00,
2013-01-26 11:51:00,19.4,3.0,30.03,NNW,337,4.0,5.0,48,0.00,,,0.00,WeatherCatV1.10B1784,2013-01-26 16:51:00,
2013-01-26 11:56:00,19.4,1.6,30.03,NNW,344,2.0,8.0,45,0.00,,,0.00,WeatherCatV1.10B1784,2013-01-26 16:56:00,
2013-01-26 12:01:00,19.5,2.1,30.03,WNW,293,6.0,7.0,46,0.00,,,0.00,WeatherCatV1.10B1784,2013-01-26 17:01:00,
2013-01-26 12:06:00,19.8,1.5,30.03,NW,306,1.0,4.0,44,0.00,,,0.00,WeatherCatV1.10B1784,2013-01-26 17:06:00,
2013-01-26 12:11:00,20.0,3.0,30.03,NNW,337,0.0,7.0,47,0.00,,,0.00,WeatherCatV1.10B1784,2013-01-26 17:11:00,
2013-01-26 12:16:00,20.0,4.4,30.03,NNW,327,1.0,6.0,50,0.00,,,0.00,WeatherCatV1.10B1784,2013-01-26 17:16:00,
2013-01-26 12:21:00,19.9,3.4,30.02,NNE,17,1.0,8.0,48,0.00,,,0.00,WeatherCatV1.10B1784,2013-01-26 17:21:00,
2013-01-26 12:26:00,19.9,3.0,30.03,NW,311,2.0,5.0,47,0.00,,,0.00,WeatherCatV1.10B1784,2013-01-26 17:26:00,
2013-01-26 12:31:00,20.0,3.5,30.02,WNW,295,0.0,7.0,48,0.00,,,0.00,WeatherCatV1.10B1784,2013-01-26 17:31:00,
2013-01-26 12:36:00,20.3,2.4,30.02,NW,315,4.0,6.0,45,0.00,,,0.00,WeatherCatV1.10B1784,2013-01-26 17:36:00,
2013-01-26 12:41:00,20.3,3.8,30.02,NNW,331,0.0,1.0,48,0.00,,,0.00,WeatherCatV1.10B1784,2013-01-26 17:41:00,
2013-01-26 12:46:00,20.3,2.4,30.02,NW,317,1.0,11.0,45,0.00,,,0.00,WeatherCatV1.10B1784,2013-01-26 17:46:00,
2013-01-26 12:51:00,20.1,2.2,30.02,WNW,300,3.0,6.0,45,0.00,,,0.00,WeatherCatV1.10B1784,2013-01-26 17:51:00,
2013-01-26 12:56:00,20.2,2.3,30.02,WNW,300,3.0,5.0,45,0.00,,,0.00,WeatherCatV1.10B1784,2013-01-26 17:56:00,
2013-01-26 13:01:00,20.3,1.9,30.02,NNW,330,4.0,9.0,44,0.00,,,0.00,WeatherCatV1.10B1784,2013-01-26 18:01:00,
2013-01-26 13:06:00,20.5,2.6,30.02,NW,315,2.0,5.0,45,0.00,,,0.00,WeatherCatV1.10B1784,2013-01-26 18:06:00,
2013-01-26 13:11:00,20.7,1.8,30.02,WNW,294,3.0,4.0,43,0.00,,,0.00,WeatherCatV1.10B1784,2013-01-26 18:11:00,
2013-01-26 13:16:00,20.8,1.9,30.02,NW,307,2.0,3.0,43,0.00,,,0.00,WeatherCatV1.10B1784,2013-01-26 18:16:00,
2013-01-26 13:21:00,20.4,1.0,30.02,North,354,2.0,7.0,42,0.00,,,0.00,WeatherCatV1.10B1784,2013-01-26 18:21:00,
2013-01-26 13:26:00,20.2,1.3,30.02,North,352,1.0,6.0,43,0.00,,,0.00,WeatherCatV1.10B1784,2013-01-26 18:26:00,
2013-01-26 13:31:00,20.4,1.5,30.02,North,3,2.0,7.0,43,0.00,,,0.00,WeatherCatV1.10B1784,2013-01-26 18:31:00,
2013-01-26 13:36:00,20.9,1.5,30.02,WNW,302,8.0,8.0,42,0.00,,,0.00,WeatherCatV1.10B1784,2013-01-26 18:36:00,
2013-01-26 13:41:00,20.9,0.4,30.02,NW,304,3.0,6.0,40,0.00,,,0.00,WeatherCatV1.10B1784,2013-01-26 18:41:00,
2013-01-26 13:46:00,20.7,0.2,30.02,NW,318,4.0,11.0,40,0.00,,,0.00,WeatherCatV1.10B1784,2013-01-26 18:46:00,
2013-01-26 13:51:00,20.5,1.1,30.02,NNW,333,3.0,11.0,42,0.00,,,0.00,WeatherCatV1.10B1784,2013-01-26 18:51:00,
2013-01-26 13:56:00,20.6,0.7,30.02,NW,305,5.0,7.0,41,0.00,,,0.00,WeatherCatV1.10B1784,2013-01-26 18:56:00,
2013-01-26 14:01:00,20.9,1.5,30.03,WNW,300,4.0,9.0,42,0.00,,,0.00,WeatherCatV1.10B1784,2013-01-26 19:01:00,
2013-01-26 14:06:00,20.8,1.4,30.03,WNW,284,5.0,12.0,42,0.00,,,0.00,WeatherCatV1.10B1784,2013-01-26 19:06:00,
2013-01-26 14:11:00,20.5,0.6,30.03,NW,314,4.0,10.0,41,0.00,,,0.00,WeatherCatV1.10B1784,2013-01-26 19:11:00,
2013-01-26 14:16:00,20.6,2.2,30.03,NNW,340,4.0,7.0,44,0.00,,,0.00,WeatherCatV1.10B1784,2013-01-26 19:16:00,
2013-01-26 14:21:00,20.9,2.0,30.03,NNW,333,5.0,5.0,43,0.00,,,0.00,WeatherCatV1.10B1784,2013-01-26 19:21:00,
2013-01-26 14:26:00,20.7,0.8,30.03,WNW,298,10.0,10.0,41,0.00,,,0.00,WeatherCatV1.10B1784,2013-01-26 19:26:00,
2013-01-26 14:31:00,20.7,0.8,30.03,WNW,298,3.0,8.0,41,0.00,,,0.00,WeatherCatV1.10B1784,2013-01-26 19:31:00,
2013-01-26 14:36:00,21.0,1.0,30.03,WNW,282,5.0,8.0,41,0.00,,,0.00,WeatherCatV1.10B1784,2013-01-26 19:36:00,
2013-01-26 14:41:00,21.2,1.2,30.04,North,355,2.0,5.0,41,0.00,,,0.00,WeatherCatV1.10B1784,2013-01-26 19:41:00,
2013-01-26 14:46:00,20.7,0.8,30.04,North,358,2.0,8.0,41,0.00,,,0.00,WeatherCatV1.10B1784,2013-01-26 19:46:00,
2013-01-26 14:51:00,20.7,1.3,30.05,NNE,13,4.0,4.0,42,0.00,,,0.00,WeatherCatV1.10B1784,2013-01-26 19:51:00,
2013-01-26 14:56:00,20.8,1.4,30.04,NW,324,5.0,5.0,42,0.00,,,0.00,WeatherCatV1.10B1784,2013-01-26 19:56:00,
2013-01-26 15:01:00,20.7,0.8,30.05,North,8,8.0,8.0,41,0.00,,,0.00,WeatherCatV1.10B1784,2013-01-26 20:01:00,
2013-01-26 15:06:00,20.7,0.8,30.05,NNW,341,8.0,12.0,41,0.00,,,0.00,WeatherCatV1.10B1784,2013-01-26 20:06:00,
2013-01-26 15:11:00,20.6,1.2,30.05,North,359,3.0,6.0,42,0.00,,,0.00,WeatherCatV1.10B1784,2013-01-26 20:11:00,
2013-01-26 15:16:00,20.5,1.1,30.05,NNW,346,5.0,5.0,42,0.00,,,0.00,WeatherCatV1.10B1784,2013-01-26 20:16:00,
2013-01-26 15:21:00,21.3,0.8,30.05,WNW,283,1.0,7.0,40,0.00,,,0.00,WeatherCatV1.10B1784,2013-01-26 20:21:00,
2013-01-26 15:26:00,21.3,0.2,30.05,West,281,2.0,7.0,39,0.00,,,0.00,WeatherCatV1.10B1784,2013-01-26 20:26:00,
2013-01-26 15:31:00,21.2,1.2,30.05,North,355,7.0,7.0,41,0.00,,,0.00,WeatherCatV1.10B1784,2013-01-26 20:31:00,
2013-01-26 15:36:00,21.2,1.2,30.05,NNW,342,3.0,9.0,41,0.00,,,0.00,WeatherCatV1.10B1784,2013-01-26 20:36:00,
2013-01-26 15:41:00,21.0,1.0,30.06,NNW,341,2.0,5.0,41,0.00,,,0.00,WeatherCatV1.10B1784,2013-01-26 20:41:00,
2013-01-26 15:46:00,21.0,-0.6,30.06,NNW,342,5.0,7.0,38,0.00,,,0.00,WeatherCatV1.10B1784,2013-01-26 20:46:00,
2013-01-26 15:51:00,21.0,0.0,30.06,NW,311,7.0,7.0,39,0.00,,,0.00,WeatherCatV1.10B1784,2013-01-26 20:51:00,
2013-01-26 15:56:00,20.6,-1.5,30.06,NW,326,3.0,7.0,37,0.00,,,0.00,WeatherCatV1.10B1784,2013-01-26 20:56:00,
2013-01-26 16:01:00,20.6,-1.5,30.07,North,358,5.0,7.0,37,0.00,,,0.00,WeatherCatV1.10B1784,2013-01-26 21:01:00,
2013-01-26 16:06:00,20.1,-1.4,30.07,NW,322,2.0,5.0,38,0.00,,,0.00,WeatherCatV1.10B1784,2013-01-26 21:06:00,
2013-01-26 16:11:00,19.6,-1.8,30.07,NW,320,2.0,4.0,38,0.00,,,0.00,WeatherCatV1.10B1784,2013-01-26 21:11:00,
2013-01-26 16:16:00,19.2,-1.1,30.07,NW,318,0.0,4.0,40,0.00,,,0.00,WeatherCatV1.10B1784,2013-01-26 21:16:00,
2013-01-26 16:21:00,18.9,-3.0,30.07,NNW,345,6.0,8.0,37,0.00,,,0.00,WeatherCatV1.10B1784,2013-01-26 21:21:00,
2013-01-26 16:26:00,18.7,-3.2,30.08,NW,322,5.0,11.0,37,0.00,,,0.00,WeatherCatV1.10B1784,2013-01-26 21:26:00,
2013-01-26 16:31:00,18.5,-2.8,30.09,NW,306,3.0,6.0,38,0.00,,,0.00,WeatherCatV1.10B1784,2013-01-26 21:31:00,
2013-01-26 16:36:00,18.3,-3.6,30.09,NW,322,2.0,13.0,37,0.00,,,0.00,WeatherCatV1.10B1784,2013-01-26 21:36:00,
2013-01-26 16:41:00,18.0,-4.4,30.09,NNW,338,4.0,11.0,36,0.00,,,0.00,WeatherCatV1.10B1784,2013-01-26 21:41:00,
2013-01-26 16:46:00,17.8,-4.6,30.09,NW,323,3.0,6.0,36,0.00,,,0.00,WeatherCatV1.10B1784,2013-01-26 21:46:00,
2013-01-26 16:51:00,17.6,-5.3,30.10,NW,313,4.0,12.0,35,0.00,,,0.00,WeatherCatV1.10B1784,2013-01-26 21:51:00,
2013-01-26 16:56:00,17.4,-4.4,30.10,NNW,328,5.0,13.0,37,0.00,,,0.00,WeatherCatV1.10B1784,2013-01-26 21:56:00,
2013-01-26 17:01:00,17.2,-4.5,30.10,North,352,6.0,9.0,37,0.00,,,0.00,WeatherCatV1.10B1784,2013-01-26 22:01:00,
2013-01-26 17:06:00,17.1,-5.2,30.10,NNW,329,3.0,9.0,36,0.00,,,0.00,WeatherCatV1.10B1784,2013-01-26 22:06:00,
2013-01-26 17:11:00,16.9,-4.8,30.10,NW,321,9.0,9.0,37,0.00,,,0.00,WeatherCatV1.10B1784,2013-01-26 22:11:00,
2013-01-26 17:16:00,16.8,-4.9,30.11,NW,321,8.0,8.0,37,0.00,,,0.00,WeatherCatV1.10B1784,2013-01-26 22:16:00,
2013-01-26 17:21:00,16.6,-4.5,30.11,NNW,328,2.0,4.0,38,0.00,,,0.00,WeatherCatV1.10B1784,2013-01-26 22:21:00,
2013-01-26 17:26:00,16.4,-4.7,30.11,NW,319,2.0,4.0,38,0.00,,,0.00,WeatherCatV1.10B1784,2013-01-26 22:26:00,
2013-01-26 17:31:00,16.2,-6.0,30.11,WNW,299,2.0,5.0,36,0.00,,,0.00,WeatherCatV1.10B1784,2013-01-26 22:31:00,
2013-01-26 17:36:00,16.1,-6.1,30.12,North,352,1.0,5.0,36,0.00,,,0.00,WeatherCatV1.10B1784,2013-01-26 22:36:00,
2013-01-26 17:41:00,16.1,-5.5,30.12,NW,311,4.0,7.0,37,0.00,,,0.00,WeatherCatV1.10B1784,2013-01-26 22:41:00,
2013-01-26 17:46:00,16.0,-5.6,30.12,NNW,337,4.0,7.0,37,0.00,,,0.00,WeatherCatV1.10B1784,2013-01-26 22:46:00,
2013-01-26 17:51:00,16.0,-5.6,30.13,NW,311,2.0,5.0,37,0.00,,,0.00,WeatherCatV1.10B1784,2013-01-26 22:51:00,
2013-01-26 17:56:00,16.0,-5.1,30.13,NNW,329,2.0,5.0,38,0.00,,,0.00,WeatherCatV1.10B1784,2013-01-26 22:56:00,
2013-01-26 18:01:00,16.0,-4.5,30.13,NNW,329,5.0,9.0,39,0.00,,,0.00,WeatherCatV1.10B1784,2013-01-26 23:01:00,
2013-01-26 18:06:00,16.0,-4.0,30.13,NW,311,3.0,4.0,40,0.00,,,0.00,WeatherCatV1.10B1784,2013-01-26 23:06:00,
2013-01-26 18:11:00,15.9,-4.6,30.14,NNW,335,0.0,3.0,39,0.00,,,0.00,WeatherCatV1.10B1784,2013-01-26 23:11:00,
2013-01-26 18:16:00,15.8,-4.2,30.14,NNW,335,0.0,3.0,40,0.00,,,0.00,WeatherCatV1.10B1784,2013-01-26 23:16:00,
2013-01-26 18:21:00,15.8,-4.2,30.14,North,3,5.0,7.0,40,0.00,,,0.00,WeatherCatV1.10B1784,2013-01-26 23:21:00,
2013-01-26 18:26:00,15.8,-3.7,30.15,NNW,331,3.0,3.0,41,0.00,,,0.00,WeatherCatV1.10B1784,2013-01-26 23:26:00,
2013-01-26 18:31:00,15.8,-3.2,30.15,NW,317,7.0,7.0,42,0.00,,,0.00,WeatherCatV1.10B1784,2013-01-26 23:31:00,
2013-01-26 18:36:00,15.7,-2.8,30.15,NNE,16,5.0,5.0,43,0.00,,,0.00,WeatherCatV1.10B1784,2013-01-26 23:36:00,
2013-01-26 18:41:00,15.6,-2.4,30.15,WNW,298,6.0,8.0,44,0.00,,,0.00,WeatherCatV1.10B1784,2013-01-26 23:41:00,
2013-01-26 18:46:00,15.6,-2.4,30.15,North,357,2.0,10.0,44,0.00,,,0.00,WeatherCatV1.10B1784,2013-01-26 23:46:00,
2013-01-26 18:51:00,15.5,-2.5,30.15,NNW,348,3.0,3.0,44,0.00,,,0.00,WeatherCatV1.10B1784,2013-01-26 23:51:00,
2013-01-26 18:56:00,15.4,-2.1,30.16,North,356,5.0,7.0,45,0.00,,,0.00,WeatherCatV1.10B1784,2013-01-26 23:56:00,
2013-01-26 19:01:00,15.2,-2.3,30.16,NNW,346,3.0,3.0,45,0.00,,,0.00,WeatherCatV1.10B1784,2013-01-27 00:01:00,
2013-01-26 19:06:00,15.1,-1.9,30.16,NNW,346,3.0,6.0,46,0.00,,,0.00,WeatherCatV1.10B1784,2013-01-27 00:06:00,
2013-01-26 19:11:00,15.0,-1.6,30.16,NNW,348,2.0,5.0,47,0.00,,,0.00,WeatherCatV1.10B1784,2013-01-27 00:11:00,
2013-01-26 19:16:00,14.9,-2.1,30.16,NW,312,2.0,8.0,46,0.00,,,0.00,WeatherCatV1.10B1784,2013-01-27 00:16:00,
2013-01-26 19:21:00,14.8,-1.7,30.16,NW,314,3.0,5.0,47,0.00,,,0.00,WeatherCatV1.10B1784,2013-01-27 00:21:00,
2013-01-26 19:26:00,14.6,-1.5,30.16,NW,320,3.0,5.0,48,0.00,,,0.00,WeatherCatV1.10B1784,2013-01-27 00:26:00,
2013-01-26 19:31:00,14.5,-1.6,30.17,NW,316,3.0,4.0,48,0.00,,,0.00,WeatherCatV1.10B1784,2013-01-27 00:31:00,
2013-01-26 19:36:00,14.4,-1.7,30.17,NW,317,1.0,5.0,48,0.00,,,0.00,WeatherCatV1.10B1784,2013-01-27 00:36:00,
2013-01-26 19:41:00,14.4,-1.7,30.17,North,4,3.0,7.0,48,0.00,,,0.00,WeatherCatV1.10B1784,2013-01-27 00:41:00,
2013-01-26 19:46:00,14.3,-1.3,30.17,NW,315,5.0,5.0,49,0.00,,,0.00,WeatherCatV1.10B1784,2013-01-27 00:46:00,
2013-01-26 19:51:00,14.3,-1.8,30.17,NW,318,3.0,5.0,48,0.00,,,0.00,WeatherCatV1.10B1784,2013-01-27 00:51:00,
2013-01-26 19:56:00,14.2,-1.8,30.17,NW,323,4.0,5.0,48,0.00,,,0.00,WeatherCatV1.10B1784,2013-01-27 00:56:00,
2013-01-26 20:01:00,14.2,-1.4,30.17,West,267,1.0,3.0,49,0.00,,,0.00,WeatherCatV1.10B1784,2013-01-27 01:01:00,
2013-01-26 20:06:00,14.1,-1.5,30.17,NW,321,0.0,5.0,49,0.00,,,0.00,WeatherCatV1.10B1784,2013-01-27 01:06:00,
2013-01-26 20:11:00,14.0,-1.6,30.17,NNW,348,2.0,7.0,49,0.00,,,0.00,WeatherCatV1.10B1784,2013-01-27 01:11:00,
2013-01-26 20:16:00,13.9,-0.8,30.17,NNW,344,3.0,5.0,51,0.00,,,0.00,WeatherCatV1.10B1784,2013-01-27 01:16:00,
2013-01-26 20:21:00,13.7,-1.5,30.17,NW,314,3.0,10.0,50,0.00,,,0.00,WeatherCatV1.10B1784,2013-01-27 01:21:00,
2013-01-26 20:26:00,13.7,-1.5,30.17,NW,305,4.0,8.0,50,0.00,,,0.00,WeatherCatV1.10B1784,2013-01-27 01:26:00,
2013-01-26 20:31:00,13.7,-1.5,30.17,WNW,303,4.0,6.0,50,0.00,,,0.00,WeatherCatV1.10B1784,2013-01-27 01:31:00,
2013-01-26 20:36:00,13.6,-1.1,30.17,NNW,327,5.0,7.0,51,0.00,,,0.00,WeatherCatV1.10B1784,2013-01-27 01:36:00,
2013-01-26 20:41:00,13.4,-0.9,30.18,NNW,327,3.0,4.0,52,0.00,,,0.00,WeatherCatV1.10B1784,2013-01-27 01:41:00,
2013-01-26 20:46:00,13.4,-1.3,30.18,NNW,328,8.0,11.0,51,0.00,,,0.00,WeatherCatV1.10B1784,2013-01-27 01:46:00,
2013-01-26 20:51:00,13.5,-1.2,30.18,NNW,340,3.0,5.0,51,0.00,,,0.00,WeatherCatV1.10B1784,2013-01-27 01:51:00,
2013-01-26 20:56:00,13.3,-0.6,30.18,NNW,340,0.0,3.0,53,0.00,,,0.00,WeatherCatV1.10B1784,2013-01-27 01:56:00,
2013-01-26 21:01:00,13.2,-0.7,30.18,NNW,336,0.0,3.0,53,0.00,,,0.00,WeatherCatV1.10B1784,2013-01-27 02:01:00,
2013-01-26 21:06:00,13.2,-0.7,30.18,NW,317,1.0,2.0,53,0.00,,,0.00,WeatherCatV1.10B1784,2013-01-27 02:06:00,
2013-01-26 21:11:00,13.1,-0.8,30.19,NW,321,3.0,3.0,53,0.00,,,0.00,WeatherCatV1.10B1784,2013-01-27 02:11:00,
2013-01-26 21:16:00,12.9,-0.6,30.19,WNW,296,1.0,2.0,54,0.00,,,0.00,WeatherCatV1.10B1784,2013-01-27 02:16:00,
2013-01-26 21:21:00,12.9,-0.6,30.19,WNW,300,5.0,5.0,54,0.00,,,0.00,WeatherCatV1.10B1784,2013-01-27 02:21:00,
2013-01-26 21:26:00,12.8,-0.7,30.19,WNW,303,3.0,5.0,54,0.00,,,0.00,WeatherCatV1.10B1784,2013-01-27 02:26:00,
2013-01-26 21:31:00,12.8,-0.7,30.19,NNW,336,0.0,3.0,54,0.00,,,0.00,WeatherCatV1.10B1784,2013-01-27 02:31:00,
2013-01-26 21:36:00,12.8,-0.7,30.20,NNW,331,0.0,4.0,54,0.00,,,0.00,WeatherCatV1.10B1784,2013-01-27 02:36:00,
2013-01-26 21:41:00,12.7,-0.4,30.20,WNW,302,2.0,2.0,55,0.00,,,0.00,WeatherCatV1.10B1784,2013-01-27 02:41:00,
2013-01-26 21:46:00,12.7,-0.8,30.20,NW,310,0.0,7.0,54,0.00,,,0.00,WeatherCatV1.10B1784,2013-01-27 02:46:00,
2013-01-26 21:51:00,12.7,-0.4,30.20,NNW,338,2.0,3.0,55,0.00,,,0.00,WeatherCatV1.10B1784,2013-01-27 02:51:00,
2013-01-26 21:56:00,12.7,-0.4,30.20,NNW,338,0.0,0.0,55,0.00,,,0.00,WeatherCatV1.10B1784,2013-01-27 02:56:00,
2013-01-26 22:01:00,12.6,-0.5,30.20,NW,313,0.0,8.0,55,0.00,,,0.00,WeatherCatV1.10B1784,2013-01-27 03:01:00,
2013-01-26 22:06:00,12.6,-0.1,30.20,NW,322,0.0,2.0,56,0.00,,,0.00,WeatherCatV1.10B1784,2013-01-27 03:06:00,
2013-01-26 22:11:00,12.6,-0.1,30.20,NW,323,0.0,1.0,56,0.00,,,0.00,WeatherCatV1.10B1784,2013-01-27 03:11:00,
2013-01-26 22:16:00,12.4,-0.3,30.21,NW,323,0.0,0.0,56,0.00,,,0.00,WeatherCatV1.10B1784,2013-01-27 03:16:00,
2013-01-26 22:21:00,12.3,-0.4,30.21,NW,323,0.0,1.0,56,0.00,,,0.00,WeatherCatV1.10B1784,2013-01-27 03:21:00,
2013-01-26 22:26:00,12.3,0.0,30.21,NW,325,0.0,5.0,57,0.00,,,0.00,WeatherCatV1.10B1784,2013-01-27 03:26:00,
2013-01-26 22:31:00,12.3,-0.4,30.21,NNW,329,3.0,5.0,56,0.00,,,0.00,WeatherCatV1.10B1784,2013-01-27 03:31:00,
2013-01-26 22:36:00,12.2,-0.1,30.21,NW,315,0.0,0.0,57,0.00,,,0.00,WeatherCatV1.10B1784,2013-01-27 03:36:00,
2013-01-26 22:41:00,12.1,0.2,30.21,NW,321,0.0,6.0,58,0.00,,,0.00,WeatherCatV1.10B1784,2013-01-27 03:41:00,
2013-01-26 22:46:00,12.1,-0.2,30.21,NW,321,0.0,3.0,57,0.00,,,0.00,WeatherCatV1.10B1784,2013-01-27 03:46:00,
2013-01-26 22:51:00,12.1,0.2,30.22,NNW,338,0.0,6.0,58,0.00,,,0.00,WeatherCatV1.10B1784,2013-01-27 03:51:00,
2013-01-26 22:56:00,12.1,-0.2,30.22,NNW,331,0.0,0.0,57,0.00,,,0.00,WeatherCatV1.10B1784,2013-01-27 03:56:00,
2013-01-26 23:01:00,12.0,0.1,30.22,NNW,333,0.0,0.0,58,0.00,,,0.00,WeatherCatV1.10B1784,2013-01-27 04:01:00,
2013-01-26 23:06:00,11.9,0.4,30.22,NNW,333,0.0,2.0,59,0.00,,,0.00,WeatherCatV1.10B1784,2013-01-27 04:06:00,
2013-01-26 23:11:00,11.9,0.4,30.22,NNW,346,0.0,2.0,59,0.00,,,0.00,WeatherCatV1.10B1784,2013-01-27 04:11:00,
2013-01-26 23:16:00,12.1,0.6,30.22,NNW,343,1.0,5.0,59,0.00,,,0.00,WeatherCatV1.10B1784,2013-01-27 04:16:00,
2013-01-26 23:21:00,12.1,0.6,30.22,NNW,338,4.0,5.0,59,0.00,,,0.00,WeatherCatV1.10B1784,2013-01-27 04:21:00,
2013-01-26 23:26:00,12.0,0.8,30.22,NNW,337,4.0,4.0,60,0.00,,,0.00,WeatherCatV1.10B1784,2013-01-27 04:26:00,
2013-01-26 23:31:00,12.1,0.6,30.22,West,267,2.0,8.0,59,0.00,,,0.00,WeatherCatV1.10B1784,2013-01-27 04:31:00,
2013-01-26 23:36:00,12.1,0.9,30.23,NNW,348,2.0,3.0,60,0.00,,,0.00,WeatherCatV1.10B1784,2013-01-27 04:36:00,
2013-01-26 23:41:00,12.2,1.0,30.23,NE,36,1.0,8.0,60,0.00,,,0.00,WeatherCatV1.10B1784,2013-01-27 04:41:00,
2013-01-26 23:46:00,12.1,0.9,30.23,NE,36,0.0,2.0,60,0.00,,,0.00,WeatherCatV1.10B1784,2013-01-27 04:46:00,
2013-01-26 23:51:00,12.1,0.9,30.22,WNW,286,4.0,4.0,60,0.00,,,0.00,WeatherCatV1.10B1784,2013-01-27 04:51:00,
2013-01-26 23:56:00,12.0,1.2,30.23,NW,315,0.0,2.0,61,0.00,,,0.00,WeatherCatV1.10B1784,2013-01-27 04:56:00,